Regional Weather Roundup
Issued by NWS

Home | Current Version | Previous Version | Graphics & Text | Print | Product List | Glossary On
Versions: 1 2 3 4 5 6 7 8 9 10 11 12 13 14 15 16 17 18 19 20 21 22 23 24 25 26 27 28 29 30 31 32 33 34 35 36 37 38 39 40 41 42 43 44 45 46 47 48 49 50
000
ASUS43 KMKX 230900
RWRWI

WISCONSIN REGIONAL WEATHER ROUNDUP
NATIONAL WEATHER SERVICE MILWAUKEE/SULLIVAN WI
400 AM CDT WED APR 23 2014

NOTE: "FAIR" INDICATES FEW OR NO CLOUDS BELOW 12,000 FEET WITH NO
SIGNIFICANT WEATHER AND/OR OBSTRUCTIONS TO VISIBILITY.

WIZ001-002-006>008-014>016-023>028-231000-
NORTHWEST WISCONSIN

CITY           SKY/WX    TMP DP  RH WIND       PRES   REMARKS
SUPERIOR ARPT  CLEAR     30  28  92 NE5       30.14S WCI  25
ASHLAND        CLEAR     24  23  96 SW5       30.15S WCI  18
HAYWARD        CLEAR     24  21  88 CALM      30.13S
SIREN          CLEAR     27  23  84 CALM      30.11S
RICE LAKE      CLEAR     31  27  84 CALM      30.13S
LADYSMITH      CLEAR     29  26  89 CALM      30.15S
EAU CLAIRE     NOT AVBL
MENOMONIE      SUNNY     34  28  77 CALM      30.12R
NEW RICHMOND   PTCLDY    38  27  63 SE5       30.11S WCI  34
OSCEOLA        PTCLDY    40  27  61 SE6       30.13S
$$

WIZ003>005-009-010-017-018-231000-
NORTH CENTRAL WISCONSIN

CITY           SKY/WX    TMP DP  RH WIND       PRES   REMARKS
WOODRUFF       CLEAR     23  11  61 CALM      30.13S
RHINELANDER    CLEAR     22  20  92 CALM      30.14R
EAGLE RIVER    PTCLDY    23  23 100 CALM      30.13R FOG
LAND O LAKES   CLEAR     20  19  95 CALM      30.13S
PHILLIPS       CLEAR     25  23  93 CALM      30.13S
TOMAHAWK       CLEAR     23  21  93 CALM      30.14S
MEDFORD        CLEAR     28  25  91 E5        30.13R WCI  22
MERRILL        CLEAR     24  22  93 CALM      30.14S
$$

WIZ029-030-035-036-043>047-231000-
CENTRAL WISCONSIN

CITY           SKY/WX    TMP DP  RH WIND       PRES   REMARKS
WAUSAU         CLEAR     29  25  85 CALM      30.13S
MOSINEE        CLEAR     32  28  86 N6        30.14S WCI  26
MARSHFIELD     CLEAR     33  25  72 NE3       30.13S
STEVENS POINT  CLEAR     24  21  88 CALM      30.15S
WAUPACA        CLEAR     30  27  86 N3        30.16R
WAUTOMA        NOT AVBL
WISC RAPIDS    CLEAR     29  25  85 CALM      30.15S
CAMP DOUGLAS   CLEAR     27  27 100 CALM      30.14R
$$

WIZ011>013-019>022-031-037>040-048>050-231000-
NORTHEAST WISCONSIN

CITY           SKY/WX    TMP DP  RH WIND       PRES   REMARKS
ANTIGO         CLEAR     27  26  97 CALM      30.14R
STURGEON BAY   CLEAR     30  23  74 NW5       30.13S WCI  25
GREEN BAY      CLEAR     33  27  78 NW5       30.15R WCI  29
MANITOWOC      NOT AVBL
APPLETON       CLEAR     32  27  80 N7        30.14S WCI  26
CLINTONVILLE   CLEAR     30  27  86 CALM      30.15R
OSHKOSH        CLEAR     34  26  72 N3        30.14R
$$

WIZ032>034-041-042-053>061-231000-
SOUTHWEST WISCONSIN

CITY           SKY/WX    TMP DP  RH WIND       PRES   REMARKS
LA CROSSE      CLEAR     39  27  62 E6        30.13R WCI  35
SPARTA         CLEAR     28  24  85 CALM      30.13S
VIROQUA        FAIR      33  27  76 E6        30.11R WCI  28
BOSCOBEL       CLEAR     33  29  85 CALM      30.13R
PRAIRIE DU CHI PTCLDY    40  29  65 E5        30.11R
PLATTEVILLE    FAIR      35  27  71 E7        30.12R WCI  29
$$

WIZ056-057-062-063-064-067-068-231000-
SOUTH CENTRAL WISCONSIN

CITY           SKY/WX    TMP DP  RH WIND       PRES   REMARKS
BARABOO/DELLS  CLEAR     32  26  80 NE5       30.12S WCI  27
LONE ROCK      NOT AVBL
WATERTOWN      CLEAR     33  27  81 E3        30.13R
MADISON        CLEAR     32  27  81 CALM      30.14R
MIDDLETON      FAIR      31  27  85 CALM      30.13S
MONROE         CLEAR     36  29  76 E5        30.11R WCI  32
JANESVILLE     CLEAR     32  28  86 E7        30.12S WCI  26
$$

WIZ051-052-058>065-066-070>072-231000-
SOUTHEAST WISCONSIN

CITY           SKY/WX    TMP DP  RH WIND       PRES   REMARKS
MILWAUKEE      CLEAR     33  26  75 N6        30.15R WCI  28
WAUKESHA       CLEAR     32  28  86 CALM      30.14S
MILWAUKEE/TIMM CLEAR     30  27  86 W3        30.14S
RACINE         CLEAR     33  27  78 N8        30.15S WCI  26
BURLINGTON     CLEAR     30  28  92 CALM      30.13R
KENOSHA        CLEAR     32  27  81 N5        30.13R WCI  27
FOND DU LAC    CLEAR     30  27  88 CALM      30.15R
SHEBOYGAN      CLEAR     33  26  75 N6        30.14R WCI  28
WEST BEND      CLEAR     30  28  93 CALM      30.13S
JUNEAU         CLEAR     35  26  70 NE5       30.14S WCI  31
$$

LSZ147-162-231000-
LAKE SUPERIOR

STATION/POSITION TIME  TEMP    WIND        PRES    WAVE
                       AIR SEA DIR/SP/G            HT/PER
                 (UTC) (F)     (DEG/KT/KT) (MB)    (FT/S)
DEVILS ISLAND    0800   34     100/  2/  3 1021.7R
PORT WING        0800   27     180/  3/  4 1020.7S
SAXON HARBOR     0800          190/  2/  4 1020.7S
$$

LMZ867-665-643>646-231000-
LAKE MICHIGAN

STATION/POSITION TIME  TEMP    WIND        PRES    WAVE
                       AIR SEA DIR/SP/G            HT/PER
                 (UTC) (F)     (DEG/KT/KT) (MB)    (FT/S)
NORTHPORT PIER   0800   31     310/  9/ 13 1020.0S
SISTER BAY       0809   31      10/  8/  9   N/A
KEWAUNEE LAKESHO 0800   31     310/  4/  5 1020.9R
SHEBOYGAN LAKESH 0800   36     280/  6/  7 1021.0R
PORT WASHINGTON  0800   35     310/  4/  5 1021.0
MILWAUKEE LAKESH 0800   36      10/  7/  9   N/A
KENOSHA   LAKESH 0800   36     340/  7/  8   N/A
$$

TC  - TEMPERATURE IN CELSIUS
VSB - VISIBILITY IN STATUTE MILES
WCI - WIND CHILL INDEX
HX  - HEAT INDEX




USA.gov is the U.S. government's official web portal to all federal, state and local government web resources and services.